Regional Weather Roundup
Issued by NWS

Home | Current Version | Previous Version | Text Only | Print | Product List | Glossary Off
Versions: 1 2 3 4 5 6 7 8 9 10 11 12 13 14 15 16 17 18 19 20 21 22 23 24 25 26 27 28 29 30 31 32 33 34 35 36 37 38 39 40 41 42 43 44 45 46 47 48 49 50

272
ASUS43 KFSD 240510
RWRSD

WEATHER ROUNDUP FOR SOUTH DAKOTA
NATIONAL WEATHER SERVICE SIOUX FALLS SD
1200 AM CDT TUE MAY 24 2016

NOTE: "FAIR" INDICATES FEW OR NO CLOUDS BELOW 12,000 FEET WITH NO
SIGNIFICANT WEATHER AND/OR OBSTRUCTIONS TO VISIBILITY.


SDZ001>005-009-010-012>017-240600-
NORTHWEST AND NORTH CENTRAL SOUTH DAKOTA

CITY           SKY/WX    TMP DP  RH WIND       PRES   REMARKS
BUFFALO          N/A     54  36  50 N16       29.75R
FAITH            N/A     53  40  61 NE9       29.75R
MOBRIDGE       CLEAR     59  45  59 N15       29.75R
$$

SDZ012>016-024>037-041>051-057-063-072>074-240600-
SOUTHWEST AND SOUTH CENTRAL SOUTH DAKOTA

CITY           SKY/WX    TMP DP  RH WIND       PRES   REMARKS
RAPID CTY ARPT CLOUDY    59  32  36 W8        29.81R
PIERRE         PTCLDY    60  47  61 S7        29.72R
CUSTER         CLOUDY    54  22  28 SW3       29.89S
ELLSWORTH AFB  CLOUDY    63  30  29 NW13      29.80R
PHILIP         PTCLDY    63  39  41 SW14      29.76R
PINE RIDGE     CLEAR     52  38  58 SW7       29.86R
WINNER         FAIR      64  45  49 SW6       29.77S
$$

SDZ004>011-016>023-039-040-240600-
NORTHEAST SOUTH DAKOTA

CITY           SKY/WX    TMP DP  RH WIND       PRES   REMARKS
ABERDEEN       CLEAR     58  52  80 SE6       29.73R
WATERTOWN      CLOUDY    61  54  77 CALM      29.76S
BROOKINGS      CLOUDY    62  58  86 S8        29.77R
SISSETON         N/A     63  53  70 SW7       29.72R
$$

SDZ017-020-022-023-036>040-048>070-240600-
SOUTHEAST SOUTH DAKOTA

CITY           SKY/WX    TMP DP  RH WIND       PRES   REMARKS
SIOUX FALLS    CLOUDY    64  62  93 S6        29.78R
HURON          CLEAR     63  58  83 S6        29.73S
CHAMBERLAIN    CLEAR     63  54  74 CALM      29.76R
MITCHELL       CLEAR     64  61  90 SE8       29.75S
YANKTON        CLOUDY    66  63  88 S6        29.76S
$$

ABBREVIATIONS USED IN REMARKS
   TC - TEMPERATURE IN CELSIUS
  WCI - WIND CHILL INDEX
   HX - HEAT INDEX
  VSB - VISIBILITY





USA.gov is the U.S. government's official web portal to all federal, state and local government web resources and services.